AirNav   Bose A20 Aviation Headset
 
 585 users online  

CL35 Warner Springs Gliderport
Warner Springs, California, USA

GOING TO WARNER SPRINGS?


FAA INFORMATION EFFECTIVE 11 OCTOBER 2018

Location

FAA Identifier: CL35
Lat/Long: 33-17-04.2100N / 116-40-10.7650W
33-17.070167N / 116-40.179417W
33.2845028 / -116.6696569
(estimated)
Elevation: 2880 ft. / 878 m (estimated)
Variation: 13E (1985)
From city: 2 miles E of WARNER SPRINGS, CA
Time zone: UTC -7 (UTC -8 during Standard Time)
Zip code: 92086

Gliderport Operations

Gliderport use: Private use. Permission required prior to landing
Activation date: 10/1984
Control tower: no
ARTCC: LOS ANGELES CENTER
FSS: SAN DIEGO FLIGHT SERVICE STATION
Attendance: 0900-1700
Wind indicator: yes
Segmented circle: yes
Landing fee: yes

Gliderport Communications

UNICOM: 122.8
WX AWOS-3P at L08 (18 nm E): 126.575 (760-767-3308)
WX ASOS at RNM (19 nm SW): 132.025 (760-789-0736)

Nearby radio navigation aids

VOR radial/distance  VOR name  Freq  Var
JLIr319/9.6JULIAN VORTAC114.0015E
TRMr218/32.8THERMAL VORTAC116.2013E
PSPr186/37.1PALM SPRINGS VORTAC115.5013E
OCNr071/37.6OCEANSIDE VORTAC115.3015E
HDFr125/(39.2)HOMELAND VOR113.4014E

Gliderport Services

Runway Information

Runway 8/26

Dimensions: 3500 x 70 ft. / 1067 x 21 m
Surface: asphalt
RUNWAY 8  RUNWAY 26
Latitude: 33-17.060333N33-17.080000N
Longitude: 116-40.522667W116-39.836167W
Elevation: 2873.0 ft.2914.0 ft.
Traffic pattern: leftleft
Obstructions: none200 ft. hill, 5200 ft. from runway

Gliderport Ownership and Management from official FAA records

Ownership: Privately-owned
Owner: WARNER SPRINGS RANCH RESORT, LLC
31930 HWY 79
WARNER SPRINGS, CA 92086
Phone 760-782-4200
SKY SAILING 31930 HWY 79.
Manager: BRET WILLAT
SKY SAILING 31930 HWY 79
WARNER SPRINGS, CA 92086
Phone 760-782-0404
LEASEE.

Gliderport Operational Statistics

Aircraft based on the field: 80
Single engine airplanes: 10
Gliders airplanes: 70
    

Instrument Procedures

There are no published instrument procedures at CL35.

Some nearby airports with instrument procedures:

L08 - Borrego Valley Airport (18 nm E)
KRNM - Ramona Airport (19 nm SW)
F70 - French Valley Airport (29 nm NW)
L18 - Fallbrook Community Airpark (29 nm W)
KSEE - Gillespie Field Airport (31 nm SW)
 
Loc | Ops | Rwys | IFR | FBO | Links
Com | Nav | Svcs | Stats | Notes


 
Area around CL35 (Warner Springs Gliderport)
 
Road maps at: MapQuest Bing Google
 
Aerial photo
WARNING: Photo may not be current or correct
Aerial photo of CL35 (Warner Springs Gliderport)
Photo by Steve Lupinacci
Photo taken 27-May-2008

Do you have a better or more recent aerial photo of Warner Springs Gliderport that you would like to share? If so, please send us your photo.

 
Sectional chart

 
Airport distance calculator
Flying to Warner Springs Gliderport? Find the distance to fly.

From to CL35

Sunrise and sunset
Times for 15-Oct-2018
 Local
(UTC-7)
 Zulu
(UTC)
Morning civil twilight06:2713:27
Sunrise06:5213:52
Sunset18:1301:13
Evening civil twilight18:3801:38

Current date and time
Zulu (UTC)  16-Oct-2018 04:58:05
Local (UTC-7)  15-Oct-2018 21:58:05
 
METAR
KL08 
18nm E 
160455Z AUTO VRB04KT 10SM FEW028 SCT036 21/M21 A3002 RMK AO2
KRNM 
20nm SW 
160453Z AUTO 26006KT 10SM CLR 13/M07 A3003 RMK AO2 SLP161 T01281072
KF70 
29nm NW 
160435Z AUTO 34005KT 10SM CLR 15/M10 A3004 RMK AO1
KL18 
29nm W 
160435Z AUTO 36006KT 10SM CLR 16/M09 A3003 RMK AO2
KSEE 
32nm SW 
160435Z AUTO 29006KT 10SM CLR 17/M07 A3001 RMK AO2
KCRQ 
32nm W 
160453Z AUTO 00000KT 10SM CLR 17/M08 A3001 RMK AO2 SLP159 T01671078
KTRM 
33nm NE 
160452Z AUTO 26009KT 10SM CLR 19/M09 A3002 RMK AO2 SLP167 T01941089
KPSP 
33nm N 
160453Z 00000KT 10SM CLR 23/M18 A3008 RMK AO2 SLP184 T02331178
KNFG 
33nm W 
160355Z 05007KT 10SM CLR 15/M05 A3001 RMK AO2 SLP160 T01501050 $
KNKX 
34nm SW 
160355Z 04006KT 10SM CLR 21/M11 A3001 RMK AO2 SLP157 T02111106
TAF
KCRQ 
32nm W 
160203Z 1602/1624 VRB04KT P6SM SKC FM161900 27008KT P6SM SKC
KTRM 
33nm NE 
151741Z 1518/1618 32017G27KT P6SM SKC FM160200 32010KT P6SM SKC FM161400 32012G22KT P6SM SKC
KPSP 
33nm N 
151741Z 1518/1618 02013KT P6SM SKC TEMPO 1518/1522 36020G30KT FM160200 32013KT P6SM SKC FM160700 33013G23KT P6SM SKC
KNFG 
33nm W 
1603/1703 03006KT 9999 SKC QNH2994INS TEMPO 1603/1609 04010G17KT BECMG 1619/1621 27010KT 9999 SKC QNH2990INS T09/1611Z T27/1622Z
KNKX 
34nm SW 
1603/1703 07008KT 9999 SKC QNH2997INS FM161830 32009KT 9999 SKC QNH2993INS T13/1613Z T28/1621Z
NOTAMs
Click for the latest NOTAMs
NOTAMs are issued by the DoD/FAA and will open in a separate window not controlled by AirNav.

 

 
 

Would you like to see your business listed on this page?

 If your business provides an interesting product or service to pilots, flight crews, aircraft, or users of the Warner Springs Gliderport, you should consider listing it here.  To start the listing process, click on the button below
 
Add a business
 

Other Pages about Warner Springs Gliderport

www.agcsc.org/warner_springs_info.html
 
Update a link
 
Copyright © AirNav, LLC. All rights reserved. Privacy Policy  Contact